sat.trackr.live / text

‹ back to catalog

STARLINK-3674

NORAD 51975 · 2022-025V

PAYLOAD ACTIVE UNKNOWN

§ Identity

Operator
Country
US
Launch date
2022-03-09
Launch site
AFETR
Launch vehicle
Mass (kg)
RCS (m²)

Purposes: comms

External: N2YO · Heavens-Above · Gunter

§ Orbital elements

Epoch: 2026-09-19T13:17:03.281280Z

Period
94.01 min
Inclination
53.1605°
Eccentricity
0.0001431
Mean motion
15.31695639 rev/d
Perigee alt
469.8 km
Apogee alt
471.7 km
Semi-major
6,848.9 km
B*
3.0903e-6
RAAN
201.6087°
Arg perigee
92.9575°
Mean anomaly
267.1590°
Rev number
25,073

§ Raw data

STARLINK-36741 51975U 22025V   26262.55351020 -.00000269  00000+0  30903-5 0  99942 51975  53.1605 201.6087 0001431  92.9575 267.1590 15.31695639250734

JSON: /api/v1/satellites/51975 · /tle

For live sub-satellite position, see the globe view (requires WebGL).

§ Visibility from observer

Set your observer location to see the next 7 days of passes ≥ 10°. The values pass through the URL so the page stays shareable.

No JS? Fill the form by hand. The geolocation button needs JavaScript.